Location: Unspecified
(41.1850°N, 73.2650°W)
Time: 03:16:42
(UTC+00:00)

Daily predictions for brighter satellites

Satellite Brightness Start Highest point End
(mag) Time Altitude Azimuth Time Altitude Azimuth Time Altitude Azimuth
CZ-4 R/B 2.4 00:05:05 10° SE 00:08:06 24° ENE 00:11:06 10° NNE
Timation 2 Rocket 4.1 00:01:45 10° NNW 00:08:11 75° ENE 00:14:52 10° SSE
In-Cosmos 22 Rocket 4.1 00:04:09 10° N 00:09:28 87° ENE 00:14:50 10° S
USA 238 DEB 4.1 00:04:39 10° NNW 00:12:12 80° NE 00:20:22 10° SE
USA 238 4.1 00:04:49 10° NNW 00:12:23 79° NE 00:20:33 10° SE
NOSS 2-1 (D) 4.3 00:09:42 10° NNW 00:12:51 30° NE 00:16:49 10° ESE
Helios 1A Rocket 3.4 00:11:18 10° NE 00:13:55 23° E 00:16:31 10° SSE
Cosmos 2341 Rocket 4.0 00:09:11 10° S 00:15:25 78° E 00:21:46 10° N
SJ-6B 3.0 00:15:34 10° S 00:19:10 67° WSW 00:22:46 10° NNW
Cosmos 2366 rocket 3.9 00:13:15 10° S 00:19:23 79° E 00:25:31 10° N
CZ-4B R/B 4.3 00:16:02 10° SE 00:19:31 39° ENE 00:23:08 10° N
SL-16 R/B 2.9 00:15:03 10° SSE 00:19:56 31° ESE 00:24:50 10° NE
NOSS 2-1 (E) 4.4 00:18:16 10° N 00:21:20 28° NE 00:24:55 11° ESE
Cosmos 1812 2.4 00:20:52 14° ESE 00:21:22 16° E 00:22:31 10° NE
SPOT 5 2.7 00:19:17 10° SSE 00:23:45 63° ENE 00:28:05 10° N
Cosmos 1025 Rocket 4.4 00:20:34 10° NNE 00:23:48 21° ENE 00:26:41 12° ESE
Cosmos 1733 Rocket 3.1 00:20:47 10° S 00:25:05 61° E 00:29:26 10° NNE
NOSS 2-1 (C) 4.1 00:24:10 10° NNW 00:27:26 36° NE 00:31:03 13° ESE
Cosmos 2242 Rocket 3.7 00:25:43 10° N 00:30:06 56° E 00:34:24 10° SSE
BREEZE-M DEB (TANK) 3.8 00:29:11 10° NW 00:31:28 25° NNE 00:35:32 10° ENE
Terra 2.8 00:27:59 11° SE 00:31:49 30° ENE 00:35:52 10° N
Resurs 01 Rocket 3.6 00:28:47 10° SSW 00:32:37 30° W 00:36:29 10° NW
SL-4 R/B 3.0 00:32:37 10° S 00:35:36 22° SE 00:38:34 10° E
Cosmos 1346 Rocket 3.8 00:33:09 10° NNE 00:36:09 24° ENE 00:38:01 16° ESE
Cosmos 1656 Rocket 4.1 00:31:49 10° NNW 00:37:03 44° ENE 00:41:26 15° SE
Cosmos 1400 Rocket 2.4 00:35:38 10° S 00:39:14 81° E 00:42:51 10° NNE
Molniya-1 3.3 00:38:21 10° S 00:40:37 34° ESE 00:43:59 10° NE
Meteor 1-31 Rocket 2.4 00:37:38 10° SSE 00:41:07 70° ENE 00:44:38 10° N
IRAS Rocket 4.2 00:40:03 10° SSE 00:45:31 83° ENE 00:51:01 10° NNW
Cosmos 2237 Rocket 3.6 00:42:12 10° SW 00:47:36 43° WNW 00:53:02 10° NNE
Cosmos 2150 Rocket 4.3 00:43:49 10° S 00:48:36 41° ESE 00:53:28 10° NNE
OAO 3 Rocket 4.0 00:44:40 10° WSW 00:48:53 35° S 00:51:37 19° SE
TIMED 4.4 00:46:18 10° NNW 00:50:34 80° ENE 00:54:03 15° SSE
CSL-04 Rocket 3.9 00:46:50 10° S 00:52:22 76° WSW 00:57:56 10° NNW
Cosmos 1821 Rocket 4.1 00:48:30 10° S 00:54:47 84° W 01:01:11 10° N
ASTEX 1 4.2 00:57:42 21° ESE 01:00:06 33° ENE 01:04:30 10° NNE
Cosmos 1943 Rocket 4.3 01:02:58 10° NW 01:07:23 24° WSW 01:11:45 10° SSW
Gbstr 26 Del rocket 3.6 01:03:53 10° SSW 01:09:08 44° SE 01:12:58 13° ENE
SKYMED 3 4.1 01:07:27 10° NNE 01:11:21 73° ESE 01:14:58 12° S
ADEOS 3.5 01:08:43 20° SSE 01:12:18 70° ENE 01:17:29 10° N
Meteor 2-16 Rocket 4.4 01:06:09 10° N 01:12:18 72° E 01:17:00 18° SSE
SL-08 R/B 3.3 01:07:54 10° NNE 01:12:47 62° ESE 01:17:36 10° S
Feng Yun 1-1 Rocket 4.3 01:07:42 12° SSE 01:12:54 81° WSW 01:18:20 10° NNW
Cosmos 2221 Rocket 3.9 01:08:50 10° N 01:13:07 47° E 01:14:46 32° SE
YAOGAN 11 4.5 01:09:20 10° NNE 01:13:23 40° E 01:14:48 30° SE
CBERS 1 LM4 rocket 4.2 01:10:31 19° SSE 01:13:54 87° ENE 01:18:42 10° NNW
Cosmos 2297 4.5 01:08:40 10° N 01:14:00 38° ENE 01:16:29 26° ESE
Cosmos 1000 Rocket 4.4 01:08:41 10° N 01:14:49 70° E 01:19:16 19° SSE
BREEZE-M DEB (TANK) 3.4 01:12:23 10° SSW 01:16:02 65° SE 01:27:57 10° NE
Cosmos 2369 Rocket 2.7 01:12:39 10° NNW 01:18:00 44° ENE 01:20:20 29° ESE
HBTSS-SV1 4.4 01:14:50 10° W 01:19:16 78° S 01:21:07 34° E
USA 59 Rocket 0.7 01:18:07 10° NW 01:21:43 46° WSW 01:24:26 22° S
MOS 1 4.4 01:18:25 15° S 01:23:12 76° WSW 01:28:52 10° NNW
BREEZE-M DEB (TANK) 3.3 01:20:06 10° WNW 01:26:11 61° SW 01:26:53 46° SSE
Cosmos 1975 Rocket 4.5 01:23:41 10° NNE 01:27:00 22° ENE 01:27:00 22° ENE
OAO 2 Rocket 3.9 01:25:09 10° WSW 01:29:58 41° S 01:31:02 36° SSE
Cosmos 1943 3.5 01:28:06 28° SSE 01:30:35 44° ESE 01:35:56 10° NE
Cosmos 2285 Rocket 4.0 01:26:39 10° SSW 01:33:01 87° WNW 01:39:24 10° NNE
CZ-4B R/B 3.4 01:29:15 20° S 01:33:13 74° WSW 01:38:54 10° NNW
Cosmos 1674 Rocket 4.1 01:29:12 10° NNW 01:33:27 55° W 01:36:13 21° SSW
ERS-1 Rocket 3.5 01:33:26 17° S 01:37:08 54° W 01:42:03 10° NNW
Okean-O 2.6 01:36:30 50° SE 01:37:27 65° ENE 01:41:47 10° N
Cosmos 1908 Rocket 3.7 01:36:25 18° SSW 01:39:36 69° W 01:43:55 10° N
CZ-4 R/B 3.5 01:39:08 10° SSW 01:42:03 21° W 01:44:57 10° NW
USA 234 3.4 01:36:06 10° NE 01:42:39 76° NW 01:49:09 10° WSW
Okean O Rocket 1.4 01:44:47 57° SSE 01:45:39 83° ENE 01:49:58 10° N
Cosmos 2292 Rocket 4.1 01:44:59 10° NNW 01:48:44 42° W 01:49:38 34° SW
SL-08 R/B 4.4 01:43:11 10° N 01:49:26 89° W 01:52:33 32° S
Cosmos 2263 4.3 01:44:05 10° NNW 01:49:41 60° ENE 01:51:03 47° ESE
Cosmos 1782 Rocket 3.3 01:49:30 69° SE 01:49:50 74° E 01:54:08 10° NNE
CZ-4B R/B 3.8 01:54:57 43° ENE 01:55:03 43° ENE 01:59:32 10° N
USA 245 4.0 01:54:46 54° E 01:55:16 57° ENE 02:00:35 10° N
Ariane Rocket 3.5 01:57:25 40° ENE 01:57:34 40° ENE 02:02:16 10° N
Geosat 4.5 01:57:49 10° NNE 02:02:45 59° WNW 02:07:38 10° SW
SL-16 R/B 3.6 01:58:37 10° SW 02:03:51 38° WNW 02:09:09 10° N
Spot 2 Rocket 3.7 02:03:30 44° SSW 02:04:57 64° WSW 02:09:57 10° NNW
ATLAS 5 CENTAUR R/B 3.8 02:05:34 10° N 02:08:03 15° NE 02:08:25 15° NE
Terra 3.5 02:06:36 17° SW 02:09:17 28° W 02:13:18 10° NW
Cosmos 1269 Rocket 4.0 02:05:57 10° NNW 02:11:11 61° ENE 02:11:23 61° E
Cosmos 1140 Rocket 3.4 02:07:17 10° NNW 02:12:24 68° ENE 02:12:29 68° ENE
SL-4 R/B 2.6 02:08:58 10° WSW 02:12:12 50° WNW 02:12:12 50° WNW
Cosmos 1934 Rocket 4.5 02:08:00 14° SSW 02:13:17 57° W 02:19:24 10° N
Cosmos 2058 4.2 02:11:16 10° N 02:13:32 30° NNE 02:13:32 30° NNE
Cosmos 1315 Rocket 4.0 02:27:29 38° NW 02:27:29 38° NW 02:30:16 10° N
Cosmos 371 Rocket 4.5 02:25:05 10° N 02:28:37 32° NE 02:28:37 32° NE
Cosmos 407 Rocket 4.1 02:25:01 10° N 02:29:16 43° NE 02:29:16 43° NE
SJ 16-02 3.3 02:28:03 10° N 02:30:01 19° NNE 02:30:01 19° NNE
Lacrosse 5 rocket 3.8 02:32:06 10° N 02:32:33 11° N 02:32:33 11° N
Cosmos 1153 Rocket 4.4 02:37:03 72° E 02:37:03 72° E 02:43:17 10° NNE
Cosmos 1447 Rocket 4.3 02:35:07 10° N 02:41:23 86° E 02:41:38 82° SE
Meteor 2-17 Rocket 4.5 02:35:42 10° N 02:41:35 65° ENE 02:41:35 65° ENE
NOSS 3-1 (C) 4.2 02:35:32 10° NW 02:42:56 67° WSW 02:45:01 52° S
SPOT 3 Rocket 4.1 02:50:28 50° W 02:50:28 50° W 02:55:24 10° NNW
COSMOS 2455 2.9 02:44:55 10° NNW 02:50:39 66° NE 02:50:39 66° NE
SeaSat 1 4.4 02:55:31 19° NE 02:55:31 19° NE 02:58:32 10° N
Gbstr 26 Del rocket 4.3 02:50:48 10° W 02:55:06 40° NW 02:55:06 40° NW
ATLAS 2AS CENTAUR R/B 4.3 03:00:12 20° ENE 03:00:12 20° ENE 03:02:24 10° NE
Cosmos 921 Rocket 4.4 02:53:40 10° NNW 02:56:26 36° NW 02:56:26 36° NW
Cosmos 2369 Rocket 3.7 02:57:12 10° NW 03:01:42 25° WSW 03:02:07 25° WSW
Cosmos 1603 4.1 03:13:20 59° NW 03:13:20 59° NW 03:18:29 10° NNE
Cosmos 2173 Rocket 4.2 03:17:00 64° NNE 03:17:00 64° NNE 03:22:05 10° N
Meteor 2-3 Rocket 4.4 03:16:45 10° N 03:20:51 49° N 03:20:51 49° N
Cosmos 2100 Rocket 4.4 03:40:44 55° NW 03:40:44 55° NW 03:46:09 10° N
NOSS 3-1 (A) 4.3 03:35:29 10° NW 03:42:48 62° WSW 03:42:48 62° WSW
ATLAS 5 CENTAUR R/B 3.8 03:46:02 10° NW 03:47:33 22° NW 03:47:33 22° NW
Cosmos 1833 Rocket 4.2 04:06:10 30° NNE 04:06:10 30° NNE 04:08:56 10° NNE
SJ 16-02 4.1 04:05:51 10° NW 04:06:30 14° NW 04:06:30 14° NW
ATLAS 3B R/B 3.9 04:08:32 10° NNW 04:15:41 38° NE 04:17:16 34° ENE
CZ-2C R/B 4.2 04:33:27 30° NNE 04:33:27 30° NNE 04:36:40 10° N
SeaSat 1 4.5 04:35:07 23° NW 04:35:07 23° NW 04:36:57 10° NNW
USA 229 DEB 4.2 04:35:10 10° NNW 04:42:38 65° NE 04:42:38 65° NE
USA 229 4.2 04:35:14 10° NNW 04:42:45 64° NE 04:42:45 64° NE
ATLAS 2AS CENTAUR R/B 3.3 04:47:33 52° NW 04:47:33 52° NW 04:53:44 10° NNE
Cosmos 1697 Rocket 4.2 04:49:22 10° NNW 04:52:11 31° NNW 04:52:11 31° NNW
ACS3 Solar Sail 3.6 04:52:17 10° NE 04:55:26 21° ENE 04:55:26 21° ENE
Cosmos 1980 Rocket 3.5 05:10:12 10° NNW 05:13:32 36° N 05:13:32 36° N
CZ-4C R/B 4.1 05:20:17 19° NE 05:20:17 19° NE 05:21:52 10° NE
Cosmos 2082 Rocket 3.2 05:50:04 43° N 05:50:04 43° N 05:53:56 10° NNE
Cosmos 2333 Rocket 4.0 05:43:38 10° N 05:48:21 26° NE 05:49:52 23° ENE
Cosmos 2322 Rocket 4.4 05:54:28 10° N 05:58:38 21° NE 06:02:42 10° E
ATLAS 3B R/B 3.6 05:59:18 10° NW 06:04:27 42° WNW 06:04:27 42° WNW
USA 267 4.3 06:06:43 10° ENE 06:11:33 33° ESE 06:11:33 33° ESE
Cosmos 1634 Rocket 4.3 06:14:58 62° N 06:14:58 62° N 06:20:04 10° N
SL-16 R/B 3.0 06:09:29 10° NNW 06:14:56 46° ENE 06:14:56 46° ENE
Cosmos 1607 4.3 06:16:55 60° N 06:16:55 60° N 06:22:12 10° NNE
IDEFIX/ARIANE 42P 3.2 06:25:06 10° NNE 06:29:05 51° NE 06:29:05 51° NE
ACS3 Solar Sail 2.2 06:33:49 10° N 06:38:59 51° NW 06:38:59 51° NW
Cosmos 2279 Rocket 4.0 06:41:16 71° NW 06:41:16 71° NW 06:47:00 10° N
Meteor 2-6 Rocket 4.4 06:46:11 72° N 06:46:11 72° N 06:51:29 10° N
ADEOS II 4.3 06:44:50 10° NE 06:48:12 17° E 06:50:17 14° ESE
Cosmos 540 Rocket 3.8 06:56:07 61° ENE 06:56:07 61° ENE 07:00:41 10° NNE
ADEOS Rocket 3.6 06:49:56 10° NNE 06:57:39 76° ESE 06:59:44 53° S
BREEZE-M DEB (TANK) 4.1 06:58:16 29° NNE 06:58:30 29° NNE 07:03:43 10° E
Cosmos 1503 Rocket 4.1 06:54:55 10° NNW 07:00:01 70° NE 07:00:01 70° NE
Cosmos 2180 Rocket 4.3 07:02:27 74° W 07:02:28 74° W 07:08:40 10° N
Cosmos 2142 Rocket 4.5 07:04:16 68° W 07:04:25 69° W 07:10:48 10° N
CZ-2D R/B 3.4 06:59:46 10° NNE 07:04:32 33° E 07:05:57 29° SE
CZ-4C R/B 3.9 07:05:10 16° NW 07:06:00 17° NNW 07:09:29 10° N
SL-4 R/B 4.1 07:09:53 19° E 07:09:53 19° E 07:11:06 10° ESE
USA 281 3.0 07:07:39 64° S 07:08:43 78° WSW 07:15:19 10° NNW
COSMOS 2406 4.2 07:08:48 35° WNW 07:08:48 35° WNW 07:14:01 10° N
Cosmos 2266 Rocket 3.8 07:08:57 10° N 07:15:05 86° W 07:15:55 68° S
ISS -1.5 07:22:30 24° ENE 07:22:30 24° ENE 07:24:04 10° ENE
FENGYUN 3A 3.8 07:18:29 10° N 07:23:46 55° WNW 07:23:48 55° WNW
Meteor 2-20 4.3 07:24:08 62° SSW 07:25:14 81° W 07:31:25 10° N
Cosmos 2360 Rocket 2.1 07:21:16 10° NNW 07:26:58 87° ENE 07:29:18 37° SSE
Resurs 1-4 Rocket 2.3 07:24:24 10° NNE 07:29:41 64° ESE 07:31:02 47° SSE
Cosmos 2333 Rocket 2.7 07:27:25 10° NW 07:31:48 43° WNW 07:31:48 43° WNW
Cosmos 2082 Rocket 4.4 07:31:52 12° WNW 07:33:19 13° NW 07:35:48 10° NNW
H-2A R/B 2.8 07:29:39 10° NNE 07:34:39 47° E 07:36:58 29° SSE
Cosmos 2221 3.9 07:37:24 26° NW 07:37:24 26° NW 07:39:51 10° NNW
MOZ.5/SAFIR/RUBIN 5/SL-8 3.7 07:36:30 70° WNW 07:36:30 70° WNW 07:40:56 10° NNW
Cosmos 1655 Rocket 4.2 07:30:25 10° N 07:36:37 70° E 07:41:12 19° SSE
NPP 4.2 07:31:52 10° N 07:36:53 40° WNW 07:37:05 40° WNW
Intercosmos 24 4.4 07:34:24 10° NNW 07:40:35 62° W 07:40:51 61° WSW
Meteor 2-9 Rocket 4.5 07:37:55 10° NNW 07:42:32 43° W 07:42:32 43° W
Cosmos 2322 Rocket 2.1 07:37:33 10° NNW 07:43:08 64° WSW 07:44:22 50° SSW
ALOS 2.3 07:38:36 10° NNE 07:43:10 72° ESE 07:44:03 55° SSE
Cosmos 1461 2.9 07:44:10 63° E 07:44:10 63° E 07:47:33 10° NE
Cosmos 2278 4.2 07:38:39 10° NW 07:43:14 41° W 07:43:14 41° W
Cosmos 1833 4.3 07:47:26 49° WSW 07:48:41 61° WNW 07:54:19 10° NNE
CZ-3 R/B 4.1 07:13:15 10° WSW 07:53:05 53° S 08:03:41 10° ESE
Iridium 4 Rocket 3.5 07:54:27 48° W 07:54:40 49° W 07:59:32 10° N
Cosmos 2219 Rocket 2.1 07:49:43 10° NNW 07:55:24 90° WSW 08:01:03 10° SSE
USA 267 3.4 07:49:20 10° NE 07:55:51 68° NW 07:58:53 34° WSW
SL-16 R/B 3.7 07:54:10 10° NW 07:56:43 21° WNW 07:56:43 21° WNW
Alouette 2 Rocket 3.1 07:55:48 10° N 07:59:35 80° ENE 08:00:29 48° SSE
DMSP B5D2-2 4.0 07:59:05 42° SSW 08:00:33 58° W 08:05:40 10° NNW
ARGOS 4.4 07:57:01 10° NNE 08:02:01 38° E 08:06:58 10° SSE
Envisat 3.1 07:57:28 10° N 08:02:25 56° WNW 08:03:45 43° WSW
Aureole 1 Rocket 3.2 08:00:27 10° NNW 08:04:57 78° WSW 08:10:37 10° SSE
Cosmos 1766 Rocket 3.4 08:00:42 10° N 08:05:02 79° W 08:06:38 38° S
SL-16 R/B 3.9 07:59:22 10° SE 08:05:07 40° ENE 08:10:53 10° N
Iridium 45 4.5 08:05:21 64° SSW 08:05:51 80° W 08:09:38 10° N
BREEZE-M DEB (TANK) 3.6 08:01:11 10° WNW 08:06:05 82° SSW 08:15:30 10° ESE
IDEFIX/ARIANE 42P 4.3 08:06:06 10° NNW 08:09:08 16° WNW 08:09:47 16° WNW
H-2A R/B 2.1 08:10:29 56° W 08:10:29 56° W 08:13:55 10° NNW
Meteor 1-11 Rocket 4.2 08:05:37 10° NNW 08:11:03 41° W 08:12:40 34° SW
Cosmos 990 Rocket 4.4 08:07:52 10° NW 08:12:33 37° WSW 08:12:58 36° WSW
Gbstr 26 Del rocket 2.4 08:14:40 27° WNW 08:16:33 74° SW 08:20:20 10° SE
CZ-3 Stage 3 3.7 08:15:08 28° SW 08:19:11 48° S 08:41:28 10° ESE
Cosmos 841 Rocket 3.4 08:18:26 30° SSW 08:21:02 78° WNW 08:26:15 10° NNE
NOSS 3-4 (A) 3.8 08:15:53 10° NW 08:22:53 78° WSW 08:31:06 10° SSE
NOSS 3-4 (C) 3.9 08:16:26 10° NW 08:23:27 78° WSW 08:31:40 10° SSE
Cosmos 1553 Rocket 3.9 08:18:40 15° S 08:23:51 88° W 08:30:11 10° N
Cosmos 1238 Rocket 3.9 08:25:04 19° NW 08:25:04 19° NW 08:26:30 10° NNW
Cosmos 2084 Rocket 3.8 08:22:28 10° NW 08:26:22 37° WSW 08:30:18 10° S
ADEOS II 2.2 08:22:57 10° N 08:28:05 58° WNW 08:31:05 24° SW
DNEPR-1 R/B 4.4 08:22:54 10° NW 08:28:31 64° WSW 08:35:20 10° SSE
USA 234 3.5 08:24:11 10° ESE 08:30:39 72° NE 08:37:11 10° NW
USA 276 3.1 08:32:11 23° ENE 08:32:11 23° ENE 08:33:10 10° E
Meteor 2-4 Rocket 4.0 08:29:20 27° SW 08:31:53 45° WNW 08:37:01 10° N
Cosmos 1066 Rocket 4.1 08:31:06 21° SSW 08:34:38 62° W 08:39:57 10° N
Cosmos 1898 Rocket 3.4 08:29:58 10° NNW 08:35:08 76° WSW 08:40:16 10° SSE
Cosmos 1937 Rocket 3.5 08:32:26 10° NNW 08:37:38 83° ENE 08:42:45 10° SSE
Meteor 2-11 Rocket 4.5 08:33:25 10° NNW 08:39:27 59° W 08:45:26 10° S
CZ-2D R/B 3.0 08:39:48 10° N 08:44:24 31° WNW 08:47:13 19° WSW
CZ-2C R/B 3.7 08:40:01 10° NNE 08:44:31 39° E 08:48:52 10° SSE
SL-4 R/B 2.6 08:43:31 24° W 08:44:44 30° SW 08:48:01 10° SSE
Cosmos 2297 Rocket 2.8 08:39:27 10° S 08:44:56 55° ESE 08:50:26 10° NNE
Cosmos 1151 Rocket 3.1 08:41:51 10° S 08:46:03 75° E 08:50:16 10° NNE
DELTA 2 R/B (1) 3.8 08:45:24 20° WSW 08:49:05 58° SSE 08:54:30 10° E
USA 307 4.2 08:50:48 10° SSE 08:52:30 17° ESE 08:54:37 10° E
Cosmos 1842 Rocket 4.4 08:52:35 19° WSW 08:54:44 30° WNW 08:58:33 10° NNW
Cosmos 1745 Rocket 4.1 08:51:04 10° N 08:57:16 82° E 09:03:23 10° S
ISS -2.2 08:55:28 14° WNW 08:57:45 27° NNW 09:00:42 10° NE
Cosmos 1500 Rocket 3.7 08:53:29 10° N 08:57:55 78° E 09:02:19 10° S
COSMOS 2428 2.7 08:53:53 10° NNW 08:59:37 84° WSW 09:05:18 10° SSE
Sich 1 3.1 08:55:56 10° NNW 08:59:56 48° W 09:03:54 10° SSW
BREEZE-M DEB (TANK) 3.6 08:57:19 10° WNW 09:04:04 37° SW 09:06:50 10° SSE
Meteor 2-10 Rocket 3.9 09:00:52 10° NNW 09:05:42 42° W 09:10:42 10° SSW
Cosmos 1703 4.4 09:05:37 10° SSE 09:08:36 37° E 09:11:37 10° NNE
Resurs 1-4 Rocket 3.7 09:05:27 10° NNW 09:08:53 18° WNW 09:12:05 11° W
Cosmos 1814 Rocket 4.5 09:04:10 10° S 09:09:10 61° ESE 09:14:14 10° NNE
Cosmos 2360 Rocket 3.9 09:08:00 10° WNW 09:10:04 12° W 09:10:55 12° WSW
SL-14 R/B 4.0 09:07:04 12° SW 09:10:13 34° WNW 09:13:47 10° N
Meteor 1-28 Rocket 4.0 09:08:39 10° SSE 09:11:48 46° ENE 09:14:56 10° N
H-2A R/B 3.4 09:09:42 10° NNW 09:13:37 22° WNW 09:17:27 11° WSW
In-Cosmos 22 4.4 09:09:25 10° SSW 09:14:30 48° WNW 09:19:41 10° N
NOSS 0 Rocket 3.9 09:09:34 10° NNW 09:15:47 85° WSW 09:21:56 10° SSE
Okean 3 Rocket 4.2 09:11:44 10° NNW 09:15:48 36° W 09:19:53 10° SSW
Cosmos 1939 Rocket 3.8 09:13:56 10° NNE 09:17:26 44° E 09:20:57 10° S
H-2A R/B 2.2 09:13:43 10° N 09:17:33 45° WNW 09:21:18 10° SW
RESURS DK-1 3.2 09:14:59 10° NNW 09:18:53 53° ENE 09:22:45 10° SE
ALOS 4.2 09:17:38 10° NW 09:19:27 12° WNW 09:21:16 10° W
Cosmos 1743 Rocket 3.6 09:15:13 10° N 09:19:38 85° E 09:23:58 10° S
Cosmos 1805 Rocket 3.6 09:15:34 10° NNW 09:19:51 55° W 09:24:05 10° S
SL-24 R/B 3.7 09:16:05 10° N 09:20:05 77° WNW 09:23:46 10° SSW
AQUA 4.4 09:16:10 10° N 09:20:29 38° WNW 09:24:46 10° SW
EXPRESS MD2 3.6 09:22:29 10° SSW 09:24:53 40° SE 09:28:25 10° ENE
USA 81 4.2 09:22:38 10° N 09:27:55 82° E 09:33:10 10° S
BREEZE-M DEB (TANK) 2.3 09:31:13 10° WNW 09:37:13 60° SW 09:39:46 10° SE
S3M 4.3 09:31:09 10° SSW 09:37:19 52° WNW 09:43:27 10° N
